Flag for U.S.A. Weather past 2 weeks in Pasco, Washington, U.S.A.

Now
59 °F

Clear.


Feels Like: 58 °F
Forecast: 58 / 80 °F
Wind: 7 mph from Southwest

Location: Tri-Cities Airport

Current Time: May 25, 2015 at 5:43:50 AM

Latest Report: May 25, 2015 at 4:53 AM


Visibility: 10 mi

Pressure: 29.85 "Hg

Humidity: 69%

Dew point: 49 °F

Location of PascoLocation

Historic Weather in Pasco — Graph

°F

Pasco temperature yesterday

Maximum temperature yesterday: 83 °F (at 4:53 PM)
Minimum temperature yesterday: 57 °F (at 2:53 AM)
Average temperature yesterday: 70 °F

Past Weeks' High & Low Weather Summary

 TemperatureHumidityPressure
High86 °F (May 21, 2:53 PM)97% (May 14, 3:53 AM)30.07 "Hg (May 14, 3:53 AM)
Low39 °F (May 10, 4:53 AM)16% (May 10, 5:53 PM)29.66 "Hg (May 15, 4:53 PM)
Average65 °F59%29.85 "Hg
* Reported May 10 4:53 AM — May 25 4:53 AM, Pasco, Weather by CustomWeather, © 2015

Note: Actual official high and low records may vary slightly from our data, if they occured in-between our weather recording intervals... More about our weather records

Advertising

Pasco weather history for previous 24 hours

 ConditionsComfort  
Time TempWeatherWind HumidityBarometerVisibility
4:53 AM
Mon, May 25
59 °FClear.7 mph69%29.85 "Hg10 mi
3:53 AM60 °FClear.10 mph67%29.84 "Hg10 mi
2:53 AM59 °FClear.9 mph69%29.85 "Hg10 mi
1:53 AM61 °FClear.7 mph62%29.84 "Hg10 mi
12:53 AM65 °FClear.10 mph52%29.82 "Hg10 mi
11:53 PM
Sun, May 24
66 °FClear.7 mph43%29.82 "Hg10 mi
10:53 PM69 °FPassing clouds.7 mph39%29.80 "Hg10 mi
9:53 PM70 °FClear.10 mph37%29.79 "Hg10 mi
8:53 PM75 °FSunny.9 mph43%29.77 "Hg10 mi
7:53 PM80 °FSunny.9 mph35%29.75 "Hg10 mi
6:53 PM83 °FSunny.7 mph31%29.76 "Hg10 mi
5:53 PM83 °FSunny.6 mph32%29.77 "Hg10 mi
4:53 PM83 °FSunny.No wind33%29.79 "Hg10 mi
3:53 PM82 °FSunny.3 mph34%29.81 "Hg10 mi
2:53 PM81 °FSunny.5 mph37%29.85 "Hg10 mi
1:53 PM79 °FSunny.5 mph39%29.88 "Hg10 mi
12:53 PM76 °FSunny.3 mph43%29.91 "Hg10 mi
11:53 AM74 °FSunny.N/A45%29.93 "Hg10 mi
10:53 AM72 °FSunny.5 mph48%29.95 "Hg10 mi
9:53 AM69 °FSunny.8 mph53%29.96 "Hg10 mi
8:53 AM66 °FSunny.10 mph56%29.98 "Hg10 mi
7:53 AM63 °FSunny.9 mph63%29.98 "Hg10 mi
6:53 AM60 °FSunny.10 mph67%29.99 "Hg10 mi
5:53 AM59 °FClear.9 mph69%29.98 "Hg10 mi
Weather by CustomWeather, © 2015

See weather overviewHow to use our weather pages